1486058400.76,60323,8.81,73084.0,-5.35,-16.55,-14.11,0,*55
1486058402.02,60324,8.81,73086.5,-5.33,-16.55,-14.05,0,*51
1486058403.24,60325,8.81,73074.0,-5.33,-16.45,-13.93,0,*59
1486058404.51,60326,8.81,73068.5,-5.33,-16.27,-13.79,0,*5A
1486058405.78,60327,8.81,73086.3,-5.33,-16.31,-13.79,0,*5C
1486058407.0,60328,8.81,73086.3,-5.33,-16.45,-13.93,0,*54
1486058408.26,60329,8.81,73088.8,-5.33,-16.59,-13.83,0,*59
1486058409.48,60330,8.81,73084.3,-5.33,-16.41,-13.69,0,*5C
1486058410.71,60331,8.81,73088.5,-5.35,-16.55,-13.79,0,*5F
1486058411.96,60332,8.81,73090.0,-5.33,-16.59,-13.79,0,*56
1486058413.21,60333,8.81,73088.3,-5.33,-16.69,-13.69,0,*55
1486058414.43,60334,8.81,73080.5,-5.33,-16.59,-13.69,0,*51
1486058415.66,60335,8.81,73088.3,-5.33,-16.55,-13.69,0,*5C
1486058416.89,60336,8.81,73080.3,-5.33,-16.55,-13.65,0,*53
1486058418.12,60337,8.81,73078.3,-5.33,-16.55,-13.55,0,*51
1486058419.36,60338,8.81,73080.5,-5.31,-16.41,-13.47,0,*5A
1486058420.58,60339,8.81,73082.3,-5.33,-16.45,-13.43,0,*59
1486058421.87,60340,8.81,73080.3,-5.31,-16.51,-13.37,0,*53
1486058423.11,60341,8.81,73080.5,-5.31,-16.55,-13.23,0,*53
1486058424.34,60342,8.81,73080.8,-5.33,-16.59,-13.07,0,*58
1486058425.6,60343,8.81,73086.3,-5.33,-16.59,-12.79,0,*51
1486058426.88,60344,8.81,73086.0,-5.31,-16.51,-12.61,0,*55
1486058428.12,60345,8.81,73088.0,-5.31,-16.37,-12.03,0,*50
1486058429.41,60346,8.81,73084.5,-5.33,-16.13,-11.59,0,*5B
1486058430.67,60347,8.81,73084.3,-5.31,-15.75,-11.07,0,*50
1486058431.91,60348,8.81,73080.0,-5.31,-15.11,-10.45,0,*5A
1486058433.16,60349,8.81,73080.3,-5.33,-14.55,-10.05,0,*5C
1486058434.44,60350,8.81,73082.5,-5.33,-13.83,-9.61,0,*62
1486058435.7,60351,8.81,73076.3,-5.33,-12.97,-9.45,0,*61
1486058436.96,60352,8.81,73080.3,-5.31,-12.35,-9.27,0,*6C
1486058438.21,60353,8.81,73076.3,-5.31,-11.67,-9.19,0,*64
1486058439.47,60354,8.81,73078.5,-5.31,-11.41,-9.15,0,*6B
1486058440.7,60355,8.81,73080.0,-5.31,-11.23,-9.27,0,*6F
1486058441.96,60356,8.81,73080.5,-5.31,-11.07,-9.19,0,*67
1486058443.19,60357,8.81,73080.0,-5.31,-10.97,-9.19,0,*6E
1486058444.4,60358,8.81,73078.0,-5.29,-10.93,-9.05,0,*61
1486058445.66,60359,8.81,73080.3,-5.31,-10.79,-8.93,0,*63
1486058446.92,60360,8.81,73082.5,-5.31,-10.79,-8.93,0,*69
1486058448.14,60361,8.81,73078.3,-5.29,-10.53,-8.81,0,*6A
1486058449.4,60362,8.81,73084.0,-5.29,-10.41,-8.51,0,*67
1486058450.63,60363,8.81,73084.5,-5.29,-10.23,-8.51,0,*62
1486058451.83,60364,8.81,73084.0,-5.29,-10.09,-8.25,0,*6E
1486058453.01,60365,8.81,73084.0,-5.29,-9.89,-8.33,0,*58
1486058454.26,60366,8.81,73084.8,-5.31,-9.61,-8.21,0,*57
1486058455.48,60367,8.81,73080.0,-5.29,-9.53,-8.21,0,*5E
1486058456.72,60368,8.81,73084.0,-5.29,-9.41,-8.21,0,*52
1486058457.95,60369,8.81,73078.5,-5.29,-9.31,-8.11,0,*57
1486058459.2,60370,8.81,73082.5,-5.31,-9.27,-8.11,0,*51
1486058460.44,60371,8.81,73078.0,-5.29,-9.05,-8.07,0,*5E
1486058461.69,60372,8.81,73074.0,-5.29,-8.81,-7.99,0,*58
1486058462.9,60373,8.81,73072.0,-5.29,-8.63,-7.87,0,*5A
1486058464.1,60374,8.81,73068.5,-5.29,-8.59,-7.87,0,*54
1486058465.33,60375,8.81,73070.3,-5.27,-8.45,-7.83,0,*52
1486058466.58,60376,8.81,73070.8,-5.27,-8.41,-7.77,0,*5E
1486058467.83,60377,8.81,73068.5,-5.27,-8.29,-7.91,0,*59
1486058469.07,60378,8.81,73072.8,-5.27,-8.41,-8.03,0,*5C
1486058470.33,60379,8.81,73070.5,-5.27,-8.41,-8.07,0,*59
1486058471.55,60380,8.81,73070.5,-5.27,-8.45,-8.17,0,*5A
1486058472.75,60381,8.81,73070.0,-5.25,-8.45,-8.17,0,*59
1486058473.95,60382,8.81,73068.8,-5.25,-8.67,-8.21,0,*5F
1486058475.17,60383,8.81,73070.0,-5.27,-8.75,-8.29,0,*57
1486058476.37,60384,8.81,73072.0,-5.25,-8.97,-8.41,0,*50
1486058477.62,60385,8.81,73072.5,-5.27,-9.15,-8.41,0,*58
1486058478.83,60386,8.81,73076.0,-5.25,-9.27,-8.45,0,*5C
1486058480.04,60387,8.81,73074.8,-5.25,-9.49,-8.55,0,*54
1486058481.23,60388,8.81,73074.8,-5.25,-9.67,-8.59,0,*5B
1486058482.43,60389,8.81,73074.3,-5.25,-9.79,-8.59,0,*55
1486058483.63,60390,8.81,73078.5,-5.25,-9.79,-8.71,0,*57
1486058484.85,60391,8.81,73082.5,-5.27,-9.71,-8.71,0,*5C
1486058486.05,60392,8.81,73092.8,-5.25,-9.71,-8.71,0,*5D
1486058487.26,60393,8.81,73090.8,-5.25,-9.83,-8.75,0,*55
1486058488.48,60394,8.81,73084.5,-5.27,-10.05,-8.75,0,*66
1486058489.68,60395,8.81,73090.8,-5.25,-10.05,-8.89,0,*66
1486058490.87,60396,8.81,73082.8,-5.25,-10.09,-8.97,0,*66
1486058492.08,60397,8.81,73090.0,-5.25,-10.19,-9.01,0,*68
1486058493.31,60398,8.81,73088.0,-5.25,-10.23,-9.11,0,*6F
1486058494.54,60399,8.81,73084.8,-5.25,-10.41,-9.23,0,*6B
1486058495.77,60400,8.81,73084.0,-5.25,-10.53,-9.37,0,*6A
1486058497.03,60401,8.81,73084.5,-5.25,-10.79,-9.41,0,*62
1486058498.28,60402,8.81,73084.5,-5.25,-10.79,-9.49,0,*69
1486058499.51,60403,8.81,73082.3,-5.25,-11.07,-9.67,0,*6C
1486058500.75,60404,8.81,73084.8,-5.25,-11.29,-9.79,0,*68
1486058501.96,60405,8.81,73088.5,-5.25,-11.45,-9.79,0,*63
1486058503.22,60406,8.81,73090.0,-5.27,-11.63,-9.97,0,*66
1486058504.45,60407,8.81,73094.0,-5.25,-11.77,-9.97,0,*60
1486058505.68,60408,8.81,73088.0,-5.25,-11.89,-9.93,0,*6A
1486058506.94,60409,8.81,73088.3,-5.25,-11.97,-9.83,0,*65
1486058508.17,60410,8.81,73088.3,-5.25,-12.11,-9.79,0,*65
1486058509.38,60411,8.81,73086.8,-5.25,-12.03,-9.67,0,*68
1486058510.61,60412,8.81,73080.8,-5.25,-12.03,-9.53,0,*6C
1486058511.89,60413,8.81,73080.5,-5.27,-11.89,-9.49,0,*65
1486058513.17,60414,8.81,73082.3,-5.27,-11.85,-9.49,0,*6E
1486058514.42,60415,8.81,73086.5,-5.25,-11.77,-9.41,0,*68
1486058515.68,60416,8.81,73080.8,-5.25,-11.77,-9.41,0,*6B
1486058516.91,60417,8.81,73082.8,-5.25,-11.51,-9.27,0,*6E
1486058518.14,60418,8.81,73086.3,-5.25,-11.45,-9.15,0,*65
1486058519.37,60419,8.81,73086.0,-5.25,-11.33,-9.01,0,*60
1486058520.61,60420,8.81,73076.0,-5.25,-11.07,-8.89,0,*6C
1486058521.84,60421,8.81,73082.3,-5.25,-10.79,-8.71,0,*62
1486058523.06,60422,8.81,73074.0,-5.25,-10.41,-8.59,0,*60
1486058524.26,60423,8.81,73066.5,-5.25,-10.23,-8.71,0,*6F
1486058525.45,60424,8.81,73062.8,-5.25,-10.09,-8.59,0,*6A
1486058526.67,60425,8.81,73060.8,-5.27,-9.79,-8.71,0,*5C
1486058527.88,60426,8.81,73070.3,-5.25,-9.71,-8.85,0,*5E
1486058529.12,60427,8.81,73066.8,-5.27,-9.57,-8.89,0,*55
1486058530.36,60428,8.81,73068.3,-5.25,-9.57,-9.11,0,*58
1486058531.6,60429,8.81,73078.0,-5.25,-9.57,-9.15,0,*5D
1486058532.82,60430,8.81,73080.5,-5.25,-9.57,-9.23,0,*50
1486058534.02,60431,8.81,73086.3,-5.25,-9.79,-9.27,0,*59
1486058535.22,60432,8.81,73088.3,-5.25,-9.79,-9.27,0,*5A
1486058536.46,60433,8.81,73090.8,-5.25,-9.83,-9.41,0,*5E
1486058537.71,60434,8.81,73096.0,-5.27,-10.05,-9.53,0,*6E
1486058538.92,60435,8.81,73094.5,-5.25,-10.23,-9.79,0,*61
1486058540.13,60436,8.81,73098.3,-5.21,-10.49,-10.01,0,*5D
1486058541.35,60437,8.81,73096.3,-5.21,-10.85,-10.15,0,*59
1486058542.59,60438,8.81,73092.0,-5.21,-11.29,-10.27,0,*50
1486058543.83,60439,8.81,73092.3,-5.25,-11.77,-10.31,0,*59
1486058545.07,60440,8.81,73098.3,-5.21,-12.07,-10.31,0,*57
1486058546.32,60441,8.81,73092.3,-5.25,-12.35,-10.31,0,*53
1486058547.55,60442,8.81,73094.8,-5.25,-12.61,-10.31,0,*51
1486058548.8,60443,8.81,73094.8,-5.25,-12.75,-10.19,0,*5F
1486058550.01,60444,8.81,73094.0,-5.25,-12.97,-10.05,0,*59
1486058551.22,60445,8.81,73090.5,-5.25,-13.11,-10.05,0,*57
1486058552.43,60446,8.81,73096.8,-5.25,-13.11,-9.71,0,*6F
1486058553.66,60447,8.81,73092.8,-5.25,-13.11,-9.57,0,*6A
1486058554.89,60448,8.81,73088.0,-5.25,-12.97,-9.41,0,*6D
1486058556.12,60449,8.81,73090.8,-5.25,-12.97,-9.15,0,*6D
1486058557.35,60450,8.81,73088.8,-5.25,-12.61,-9.01,0,*69
1486058558.55,60451,8.81,73086.0,-5.25,-12.43,-8.71,0,*6E
1486058559.77,60452,8.81,73084.3,-5.25,-11.97,-8.41,0,*64
1486058561.03,60453,8.81,73086.5,-5.21,-11.59,-8.03,0,*65
1486058562.29,60454,8.81,73082.5,-5.21,-11.29,-7.77,0,*69
1486058563.52,60455,8.81,73086.3,-5.25,-11.01,-7.73,0,*62
1486058564.73,60456,8.81,73082.5,-5.21,-10.57,-7.49,0,*6E
1486058565.96,60457,8.81,73080.8,-5.21,-10.15,-7.31,0,*66
1486058567.16,60458,8.81,73080.0,-5.25,-9.93,-7.23,0,*58
1486058568.38,60459,8.81,73082.3,-5.21,-9.31,-7.05,0,*51
1486058569.59,60460,8.81,73082.8,-5.21,-8.85,-6.89,0,*50
1486058570.82,60461,8.81,73082.5,-5.21,-8.51,-6.81,0,*50
1486058572.02,60462,8.81,73082.5,-5.21,-8.17,-6.81,0,*51
1486058573.25,60463,8.81,73078.3,-5.21,-7.91,-6.77,0,*58
1486058574.5,60464,8.81,73080.5,-5.21,-7.69,-6.63,0,*5D
1486058575.69,60465,8.81,73082.8,-5.21,-7.49,-6.55,0,*5B
1486058576.92,60466,8.81,73080.3,-5.21,-7.23,-6.63,0,*51
1486058578.19,60467,8.81,73082.0,-5.19,-6.97,-6.63,0,*55
1486058579.45,60468,8.81,73080.8,-5.21,-6.93,-6.63,0,*55
1486058580.72,60469,8.81,73080.5,-5.19,-6.93,-6.63,0,*5F
1486058581.95,60470,8.81,73086.0,-5.21,-6.93,-6.77,0,*59
1486058583.2,60471,8.81,73088.0,-5.19,-6.93,-6.77,0,*53
1486058584.45,60472,8.81,73084.8,-5.19,-6.93,-6.77,0,*50
1486058585.7,60473,8.81,73086.5,-5.19,-6.93,-6.69,0,*5E
1486058586.95,60474,8.81,73084.3,-5.19,-7.05,-6.77,0,*58
1486058588.19,60475,8.81,73082.5,-5.19,-7.05,-6.77,0,*59
1486058589.42,60476,8.81,73084.5,-5.19,-7.11,-6.77,0,*5F
1486058590.66,60477,8.81,73082.3,-5.19,-7.05,-6.69,0,*54
1486058591.89,60478,8.81,73084.0,-5.19,-7.11,-6.77,0,*51
1486058593.11,60479,8.81,73088.8,-5.19,-7.11,-6.69,0,*5F
1486058594.34,60480,8.81,73086.0,-5.17,-7.15,-6.63,0,*59
1486058595.56,60481,8.81,73084.0,-5.17,-7.05,-6.73,0,*58
1486058596.77,60482,8.81,73086.3,-5.17,-7.05,-6.73,0,*5B
1486058597.97,60483,8.81,73086.0,-5.17,-7.15,-6.85,0,*52
1486058599.2,60484,8.81,73084.3,-5.17,-7.19,-7.01,0,*54
1486058600.44,60485,8.81,73084.8,-5.17,-7.39,-7.27,0,*53
1486058601.69,60486,8.81,73090.8,-5.13,-7.65,-7.61,0,*5F
1486058602.91,60487,8.81,73092.0,-5.17,-8.21,-7.95,0,*5E
1486058604.14,60488,8.81,73088.0,-5.17,-8.63,-8.07,0,*53
1486058605.34,60489,8.81,73088.8,-5.17,-9.01,-8.21,0,*53
1486058606.54,60490,8.81,73090.8,-5.17,-9.27,-8.21,0,*5F
1486058607.79,60491,8.81,73090.0,-5.17,-9.49,-8.11,0,*55
1486058609.03,60492,8.81,73088.3,-5.13,-9.49,-7.99,0,*5D
1486058610.28,60493,8.81,73086.5,-5.17,-9.41,-7.73,0,*54
1486058611.51,60494,8.81,73084.0,-5.17,-9.05,-7.65,0,*54
1486058612.73,60495,8.81,73084.0,-5.17,-8.75,-7.65,0,*53
1486058613.98,60496,8.81,73076.0,-5.17,-8.51,-7.57,0,*57
1486058615.21,60497,8.81,73080.0,-5.17,-8.37,-7.57,0,*56
1486058616.4,60498,8.81,73078.5,-5.17,-8.37,-7.53,0,*5D
1486058617.62,60499,8.81,73082.8,-5.13,-8.21,-7.35,0,*5F
1486058618.84,60500,8.81,73078.0,-5.13,-7.91,-7.15,0,*58
1486058620.07,60501,8.81,73076.5,-5.17,-7.83,-7.01,0,*5B
1486058621.29,60502,8.81,73074.3,-5.13,-7.61,-6.85,0,*5D
1486058622.48,60503,8.81,73068.8,-5.13,-7.49,-6.73,0,*5F
1486058623.68,60504,8.81,73066.3,-5.13,-7.23,-6.59,0,*5C
1486058624.91,60505,8.81,73060.5,-5.11,-7.11,-6.47,0,*51
1486058626.13,60506,8.81,73060.8,-5.13,-6.97,-6.47,0,*5F
1486058627.33,60507,8.81,73064.3,-5.13,-6.85,-6.35,0,*58
1486058628.55,60508,8.81,73066.0,-5.13,-6.73,-6.23,0,*59
1486058629.76,60509,8.81,73068.8,-5.13,-6.69,-6.23,0,*53
1486058630.96,60510,8.81,73064.8,-5.13,-6.55,-6.09,0,*5C
1486058632.18,60511,8.81,73064.3,-5.13,-6.35,-6.19,0,*5A
1486058633.44,60512,8.81,73066.5,-5.11,-6.35,-6.19,0,*5B
1486058634.65,60513,8.81,73070.5,-5.09,-6.27,-6.05,0,*5D
1486058635.87,60514,8.81,73066.5,-5.11,-6.31,-6.09,0,*58
1486058637.09,60515,8.81,73072.0,-5.11,-6.31,-6.09,0,*59
1486058638.33,60516,8.81,73070.3,-5.11,-6.31,-6.23,0,*52
1486058639.53,60517,8.81,73066.0,-5.09,-6.31,-6.31,0,*59
1486058640.76,60518,8.81,73064.5,-5.11,-6.35,-6.43,0,*5E
1486058641.95,60519,8.81,73062.8,-5.09,-6.43,-6.43,0,*57
1486058643.18,60520,8.81,73066.0,-5.09,-6.51,-6.63,0,*5C
1486058644.4,60521,8.81,73064.5,-5.11,-6.69,-6.89,0,*5B
1486058645.65,60522,8.81,73062.0,-5.09,-6.93,-7.35,0,*52
1486058646.92,60523,8.81,73060.8,-5.11,-7.35,-7.77,0,*51
1486058648.16,60524,8.81,73066.5,-5.11,-7.69,-8.17,0,*56
1486058649.38,60525,8.81,73072.3,-5.09,-7.99,-8.25,0,*50
1486058650.58,60526,8.81,73076.5,-5.11,-8.33,-8.63,0,*57
1486058651.84,60527,8.81,73074.3,-5.11,-8.85,-9.11,0,*5F
1486058653.08,60528,8.81,73086.0,-5.11,-9.45,-9.67,0,*5C
1486058654.31,60529,8.81,73078.3,-5.11,-10.09,-10.09,0,*5D
1486058655.55,60530,8.81,73082.0,-5.09,-10.63,-10.19,0,*51
1486058656.81,60531,8.81,73082.5,-5.11,-10.79,-10.35,0,*5C
1486058658.05,60532,8.81,73076.8,-5.11,-10.93,-10.49,0,*50
1486058659.3,60533,8.81,73082.5,-5.11,-11.19,-10.75,0,*5D
1486058660.57,60534,8.81,73076.8,-5.11,-11.45,-11.07,0,*57
1486058661.82,60535,8.81,73078.8,-5.11,-11.59,-11.23,0,*5D
1486058663.11,60536,8.81,73080.0,-5.11,-11.85,-11.63,0,*5B
1486058664.39,60537,8.81,73084.5,-5.11,-12.07,-11.97,0,*58
1486058665.68,60538,8.81,73088.8,-5.11,-12.35,-12.35,0,*5D
1486058666.93,60539,8.81,73088.0,-5.13,-12.83,-12.61,0,*52
1486058668.18,60540,8.81,73090.3,-5.11,-13.15,-12.75,0,*55
1486058669.42,60541,8.81,73088.0,-5.13,-13.33,-12.89,0,*51
1486058670.65,60542,8.81,73090.8,-5.11,-13.55,-12.89,0,*50
1486058671.91,60543,8.81,73090.8,-5.11,-13.43,-12.83,0,*5C
1486058673.16,60544,8.81,73086.8,-5.13,-13.33,-12.75,0,*57
1486058674.38,60545,8.81,73086.0,-5.13,-13.19,-12.97,0,*52
1486058675.63,60546,8.81,73084.0,-5.17,-13.33,-13.37,0,*56
1486058676.84,60547,8.81,73086.0,-5.13,-14.15,-13.69,0,*5B
1486058678.04,60548,8.81,73082.8,-5.13,-14.69,-13.73,0,*54
1486058679.26,60549,8.81,73080.0,-5.17,-14.97,-13.73,0,*50
1486058680.48,60550,8.81,73076.3,-5.17,-14.97,-13.51,0,*58
1486058681.7,60551,8.81,73074.8,-5.17,-15.21,-13.47,0,*52
1486058682.9,60552,8.81,73070.0,-5.13,-14.89,-13.07,0,*52
1486058684.13,60553,8.81,73066.5,-5.17,-14.93,-13.73,0,*5F
1486058685.39,60554,8.81,73056.8,-5.17,-15.35,-14.05,0,*53
1486058686.63,60555,8.81,73048.3,-5.13,-15.21,-13.87,0,*5E
1486058687.86,60556,8.81,73064.5,-5.17,-14.79,-13.51,0,*5E
1486058689.1,60557,8.81,73064.3,-5.17,-13.97,-13.65,0,*5F
1486058690.3,60558,8.81,73070.8,-5.13,-13.93,-14.33,0,*54
1486058691.53,60559,8.81,73088.0,-5.17,-14.65,-14.97,0,*51
1486058692.76,60560,8.81,73078.3,-5.17,-15.11,-15.21,0,*55
1486058693.98,60561,8.81,73082.8,-5.17,-15.49,-15.49,0,*57
1486058695.21,60562,8.81,73086.0,-5.17,-15.81,-15.63,0,*58
1486058696.47,60563,8.81,73078.0,-5.19,-16.03,-15.81,0,*52
1486058697.71,60564,8.81,73074.0,-5.19,-16.41,-15.71,0,*5C
1486058698.95,60565,8.81,73072.8,-5.13,-16.51,-15.49,0,*5D
1486058700.21,60566,8.81,73082.3,-5.19,-16.75,-15.57,0,*5D
1486058701.45,60567,8.81,73088.0,-5.21,-16.89,-15.39,0,*5C
1486058702.69,60568,8.81,73080.0,-5.21,-17.03,-15.15,0,*5E
1486058703.93,60569,8.81,73090.5,-5.21,-17.03,-14.89,0,*5B
1486058705.17,60570,8.81,73084.8,-5.21,-17.07,-14.37,0,*52
1486058706.43,60571,8.81,73084.3,-5.19,-16.69,-13.65,0,*51
1486058707.68,60572,8.81,73080.8,-5.19,-15.81,-13.15,0,*50
1486058708.89,60573,8.81,73082.8,-5.21,-15.25,-13.07,0,*57
1486058710.1,60574,8.81,73082.5,-5.21,-15.15,-12.93,0,*5F
1486058711.35,60575,8.81,73084.8,-5.21,-15.01,-12.57,0,*53
1486058712.61,60576,8.81,73084.5,-5.21,-14.79,-11.93,0,*55
1486058713.88,60577,8.81,73086.8,-5.19,-14.15,-11.33,0,*5F
1486058715.11,60578,8.81,73084.5,-5.21,-13.29,-10.49,0,*5F
1486058716.37,60579,8.81,73086.8,-5.19,-11.81,-9.75,0,*62
1486058717.59,60580,8.81,73084.3,-5.21,-10.75,-9.89,0,*66
1486058718.83,60581,8.81,73086.3,-5.21,-10.31,-10.63,0,*5B
1486058720.12,60582,8.81,73084.0,-5.19,-10.71,-11.59,0,*5F
1486058721.36,60583,8.81,73084.3,-5.21,-11.59,-12.43,0,*56
1486058722.6,60584,8.81,73088.0,-5.21,-12.11,-12.93,0,*53
1486058723.82,60585,8.81,73080.5,-5.21,-12.65,-13.69,0,*55
1486058725.06,60586,8.81,73082.5,-5.21,-13.79,-14.29,0,*59
1486058726.3,60587,8.81,73082.8,-5.21,-14.51,-14.37,0,*5A
1486058727.54,60588,8.81,73084.3,-5.21,-14.55,-14.15,0,*51
1486058728.74,60589,8.81,73076.5,-5.21,-14.69,-14.11,0,*5B
1486058729.94,60590,8.81,73072.8,-5.21,-15.11,-14.29,0,*56
1486058731.18,60591,8.81,73082.0,-5.21,-15.43,-14.29,0,*50
1486058732.39,60592,8.81,73072.0,-5.21,-15.53,-14.15,0,*5D
1486058733.63,60593,8.81,73072.3,-5.21,-15.53,-13.97,0,*51
1486058734.86,60594,8.81,73068.3,-5.21,-15.39,-13.93,0,*5E
1486058736.11,60595,8.81,73068.3,-5.21,-15.39,-13.83,0,*5E
1486058737.37,60596,8.81,73066.0,-5.21,-15.39,-13.79,0,*58
1486058738.58,60597,8.81,73066.8,-5.21,-15.29,-13.55,0,*56
1486058739.84,60598,8.81,73060.5,-5.25,-15.43,-13.61,0,*56
1486058741.05,60599,8.81,73064.3,-5.21,-15.29,-13.55,0,*58
1486058742.31,60600,8.81,73058.5,-5.25,-15.43,-13.61,0,*54
1486058743.51,60601,8.81,73064.0,-5.25,-15.49,-13.69,0,*57
1486058744.77,60602,8.81,73070.0,-5.25,-15.43,-13.61,0,*56
1486058746.0,60603,8.81,73070.8,-5.25,-15.35,-13.69,0,*5E
1486058747.22,60604,8.81,73072.8,-5.25,-15.21,-13.69,0,*5C
1486058748.47,60605,8.81,73072.5,-5.25,-15.21,-13.83,0,*59
1486058749.7,60606,8.81,73072.0,-5.25,-15.07,-13.87,0,*5A
1486058750.93,60607,8.81,73074.5,-5.25,-15.07,-13.87,0,*5B
1486058752.19,60608,8.81,73064.8,-5.25,-15.01,-13.97,0,*53
1486058753.44,60609,8.81,73060.3,-5.25,-14.93,-14.05,0,*54
1486058754.68,60610,8.81,73064.3,-5.25,-14.89,-14.05,0,*57
1486058755.89,60611,8.81,73066.8,-5.25,-14.89,-14.15,0,*57
1486058757.12,60612,8.81,73064.3,-5.25,-15.01,-14.15,0,*55
1486058758.37,60613,8.81,73070.8,-5.25,-15.01,-14.05,0,*55
1486058759.64,60614,8.81,73086.3,-5.27,-15.01,-13.87,0,*5D
1486058760.86,60615,8.81,73076.0,-5.25,-15.01,-13.73,0,*55
1486058762.08,60616,8.81,73078.0,-5.25,-15.01,-13.69,0,*5D
1486058763.31,60617,8.81,73080.0,-5.25,-15.01,-13.55,0,*53
1486058764.56,60618,8.81,73082.3,-5.25,-15.01,-13.33,0,*5C
1486058765.79,60619,8.81,73076.8,-5.25,-15.07,-13.01,0,*5A
1486058767.05,60620,8.81,73080.5,-5.25,-15.01,-12.71,0,*50
1486058768.34,60621,8.81,73078.3,-5.27,-14.83,-12.11,0,*5E
1486058769.61,60622,8.81,73076.5,-5.25,-14.43,-11.63,0,*55
1486058770.87,60623,8.81,73072.8,-5.25,-13.87,-11.07,0,*59
1486058772.14,60624,8.81,73072.0,-5.25,-13.33,-10.63,0,*52
1486058773.38,60625,8.81,73074.0,-5.25,-12.75,-10.31,0,*57
1486058774.59,60626,8.81,73078.5,-5.25,-12.29,-9.93,0,*6D
1486058775.82,60627,8.81,73070.5,-5.25,-11.77,-9.67,0,*6F
1486058777.06,60628,8.81,73068.8,-5.25,-11.45,-9.53,0,*66
1486058778.31,60629,8.81,73068.3,-5.27,-11.15,-9.41,0,*63
1486058779.59,60630,8.81,73072.5,-5.27,-10.75,-9.15,0,*6D
1486058780.82,60631,8.81,73072.0,-5.27,-10.53,-9.01,0,*6D
1486058782.02,60632,8.81,73070.5,-5.25,-10.31,-8.71,0,*6E
1486058783.23,60633,8.81,73068.8,-5.27,-10.05,-8.59,0,*60
1486058784.47,60634,8.81,73068.5,-5.27,-9.57,-8.45,0,*55
1486058785.72,60635,8.81,73064.8,-5.27,-9.37,-8.21,0,*50
1486058786.96,60636,8.81,73064.3,-5.27,-9.01,-8.21,0,*56
1486058788.18,60637,8.81,73060.3,-5.27,-8.71,-8.17,0,*54
1486058789.38,60638,8.81,73064.0,-5.25,-8.45,-8.21,0,*5B
1486058790.57,60639,8.81,73062.5,-5.25,-8.33,-8.33,0,*58
1486058791.79,60640,8.81,73058.5,-5.27,-8.21,-8.41,0,*52
1486058793.02,60641,8.81,73064.0,-5.25,-8.07,-8.71,0,*56
1486058794.24,60642,8.81,73066.0,-5.21,-8.17,-9.11,0,*57
1486058795.45,60643,8.81,73062.8,-5.25,-8.59,-9.71,0,*5E
1486058796.68,60644,8.81,73060.0,-5.25,-9.23,-10.41,0,*6E
1486058797.93,60645,8.81,73064.0,-5.25,-9.57,-10.79,0,*67
1486058799.15,60646,8.81,73066.0,-5.25,-10.19,-11.15,0,*5D
1486058800.38,60647,8.81,73064.5,-5.25,-10.53,-11.29,0,*5D
1486058801.62,60648,8.81,73058.5,-5.25,-11.07,-11.45,0,*58
1486058802.88,60649,8.81,73056.8,-5.21,-11.59,-11.59,0,*5B
1486058804.14,60650,8.81,73060.8,-5.21,-11.67,-11.55,0,*52
1486058805.36,60651,8.81,73066.5,-5.21,-11.45,-11.45,0,*52
1486058806.6,60652,8.81,73070.5,-5.21,-11.41,-11.73,0,*50
1486058807.84,60653,8.81,73058.3,-5.25,-12.29,-12.61,0,*58
1486058809.08,60654,8.81,73060.3,-5.25,-13.01,-12.89,0,*52
1486058810.28,60655,8.81,73064.3,-5.25,-13.73,-13.15,0,*52
1486058811.53,60656,8.81,73066.3,-5.25,-13.83,-13.11,0,*5A
1486058812.79,60657,8.81,73072.3,-5.25,-13.87,-13.33,0,*5F
1486058814.06,60658,8.81,73068.8,-5.27,-14.19,-14.01,0,*54
1486058815.29,60659,8.81,73080.5,-5.25,-14.89,-14.55,0,*5F
1486058816.55,60660,8.81,73086.0,-5.27,-15.43,-14.89,0,*51
1486058817.79,60661,8.81,73080.5,-5.25,-15.89,-15.07,0,*53
1486058819.0,60662,8.81,73082.8,-5.25,-16.03,-15.15,0,*52
1486058820.24,60663,8.81,73080.0,-5.25,-16.17,-15.15,0,*56
1486058821.48,60664,8.81,73072.0,-5.27,-16.37,-15.15,0,*51
1486058822.74,60665,8.81,73076.3,-5.25,-16.51,-15.21,0,*55
1486058823.98,60666,8.81,73072.3,-5.27,-16.59,-15.15,0,*5B
1486058825.24,60667,8.81,73068.8,-5.27,-16.65,-15.07,0,*56
1486058826.53,60668,8.81,73066.5,-5.27,-16.65,-15.01,0,*5F
1486058827.77,60669,8.81,73060.8,-5.27,-16.79,-14.89,0,*52
1486058829.0,60670,8.81,73060.8,-5.27,-16.75,-14.69,0,*58
1486058830.23,60671,8.81,73064.8,-5.25,-16.79,-14.43,0,*5F
1486058831.49,60672,8.81,73068.5,-5.27,-16.79,-14.43,0,*5E
1486058832.72,60673,8.81,73068.0,-5.27,-16.79,-14.19,0,*50
1486058833.98,60674,8.81,73068.3,-5.27,-16.79,-14.01,0,*5E
1486058835.22,60675,8.81,73068.3,-5.27,-16.79,-13.73,0,*5D
1486058836.45,60676,8.81,73064.5,-5.27,-16.79,-13.55,0,*5A
1486058837.66,60677,8.81,73076.5,-5.29,-16.83,-13.47,0,*53
1486058838.88,60678,8.81,73076.3,-5.29,-16.79,-13.19,0,*52
1486058840.14,60679,8.81,73084.8,-5.29,-16.51,-13.01,0,*50
1486058841.4,60680,8.81,73078.8,-5.29,-16.23,-12.61,0,*54
1486058842.64,60681,8.81,73068.0,-5.29,-15.89,-12.39,0,*5B
1486058843.91,60682,8.81,73072.0,-5.31,-15.53,-11.93,0,*55
1486058845.14,60683,8.81,73074.8,-5.29,-15.11,-11.77,0,*51
1486058846.4,60684,8.81,73076.0,-5.31,-14.65,-11.51,0,*59
1486058847.64,60685,8.81,73070.3,-5.29,-14.33,-11.37,0,*52
1486058848.87,60686,8.81,73068.8,-5.31,-13.93,-11.11,0,*51
1486058850.09,60687,8.81,73070.0,-5.29,-13.51,-10.97,0,*58
1486058851.33,60688,8.81,73076.5,-5.29,-13.15,-10.71,0,*5F
1486058852.57,60689,8.81,73086.8,-5.29,-12.75,-10.53,0,*59
1486058853.82,60690,8.81,73086.8,-5.29,-12.53,-10.27,0,*56
1486058855.1,60691,8.81,73084.5,-5.31,-11.93,-10.15,0,*50
1486058856.37,60692,8.81,73078.5,-5.31,-11.63,-10.15,0,*5C
1486058857.61,60693,8.81,73078.0,-5.29,-11.37,-10.09,0,*58
1486058858.83,60694,8.81,73074.3,-5.29,-10.97,-10.23,0,*5C
1486058860.04,60695,8.81,73068.5,-5.29,-10.85,-10.23,0,*5E
1486058861.28,60696,8.81,73066.8,-5.29,-10.71,-10.53,0,*51
1486058862.56,60697,8.81,73062.0,-5.29,-10.67,-10.79,0,*5F
1486058863.82,60698,8.81,73064.8,-5.31,-10.71,-10.97,0,*5E
1486058865.09,60699,8.81,73058.5,-5.29,-10.71,-11.37,0,*5D
1486058866.35,60700,8.81,73056.5,-5.31,-10.85,-11.77,0,*5A
1486058867.58,60701,8.81,73058.3,-5.29,-11.11,-12.15,0,*59
1486058868.87,60702,8.81,73064.8,-5.31,-11.51,-12.61,0,*54
1486058870.1,60703,8.81,73064.0,-5.29,-11.81,-12.93,0,*5C
1486058871.37,60704,8.81,73068.3,-5.29,-12.15,-13.33,0,*5E
1486058872.6,60705,8.81,73076.0,-5.27,-12.47,-13.55,0,*56
1486058873.83,60706,8.81,73078.0,-5.31,-13.15,-13.93,0,*5E
1486058875.08,60707,8.81,73078.3,-5.29,-13.51,-14.05,0,*5E
1486058876.3,60708,8.81,73078.5,-5.29,-14.11,-14.23,0,*56
1486058877.55,60709,8.81,73076.8,-5.29,-14.47,-14.23,0,*54
1486058878.78,60710,8.81,73078.5,-5.29,-14.79,-14.19,0,*58
1486058880.02,60711,8.81,73076.0,-5.29,-15.07,-14.05,0,*5C
1486058881.25,60712,8.81,73076.5,-5.29,-15.07,-14.05,0,*5F
1486058882.54,60713,8.81,73080.5,-5.31,-15.35,-14.05,0,*56
1486058883.8,60714,8.81,73088.5,-5.29,-15.39,-13.87,0,*59
1486058885.05,60715,8.81,73088.5,-5.31,-15.53,-13.79,0,*5C
1486058886.26,60716,8.81,73088.3,-5.29,-15.63,-13.65,0,*58
1486058887.52,60717,8.81,73084.8,-5.31,-15.49,-13.33,0,*5B
1486058888.76,60718,8.81,73084.8,-5.29,-15.39,-13.15,0,*5E
1486058890.02,60719,8.81,73096.8,-5.31,-15.21,-12.93,0,*50
1486058891.25,60720,8.81,73092.8,-5.29,-15.11,-12.75,0,*58
1486058892.53,60721,8.81,73090.5,-5.31,-14.97,-12.53,0,*5B
1486058893.77,60722,8.81,73094.0,-5.31,-14.89,-12.39,0,*5B
1486058895.06,60723,8.81,73088.0,-5.31,-14.75,-12.15,0,*57
1486058896.33,60724,8.81,73088.0,-5.31,-14.51,-12.03,0,*51
1486058897.59,60725,8.81,73088.0,-5.31,-14.33,-11.93,0,*5E
1486058898.86,60726,8.81,73088.8,-5.31,-14.19,-11.89,0,*5E
1486058900.16,60727,8.81,73080.0,-5.31,-14.05,-11.89,0,*52
1486058901.43,60728,8.81,73078.5,-5.29,-14.05,-11.89,0,*54
1486058902.7,60729,8.81,73084.3,-5.31,-13.93,-11.93,0,*5F
1486058903.99,60730,8.81,73086.8,-5.31,-13.79,-11.93,0,*53
1486058905.28,60731,8.81,73090.0,-5.31,-13.87,-11.89,0,*58
1486058906.52,60732,8.81,73086.5,-5.29,-13.73,-11.89,0,*59
1486058907.81,60733,8.81,73086.0,-5.31,-13.79,-11.89,0,*5B
1486058909.1,60734,8.81,73088.8,-5.31,-13.87,-11.89,0,*5D